Location: Lafig�re
(44.4503°N, 4.0357°E)
Time: 00:08:33
(UTC+00:00)

ARGOS - Pass Details

Date: 25 January 2021
Orbit: 821 x 834 km, 98.4° (Epoch: 03 March)

Event Time Altitude Azimuth Distance (km) Brightness Sun altitude
Rises 06:12:14 0° 33° (NNE) 3,385 6.6 -10.3°
Reaches altitude 10° 06:16:06 10° 61° (ENE) 2,447 6.3 -9.7°
Maximum altitude 06:18:30 13° 87° (E) 2,242 6.7 -9.3°
Drops below altitude 10° 06:20:53 10° 114° (ESE) 2,441 7.3 -8.9°
Sets 06:24:42 0° 142° (SE) 3,369 7.4 -8.2°
